[[{"header":{"parameterUnit":"m.s-1","parameterCategory":1,"la1":30.2991,"la2":30.254,"lo1":-89.0895,"lo2":-89.0444,"dy":0.0017,"dx":0.0017,"nx":28,"ny":28,"refTime":"2024-08-15T09:00:00:Z","depth":0,"parameterNumber":2,"parameterNumberName":"U-component_of_WINDS"},"data":[0,0,0,0,0,0,0,0,0,0,0,0,0,0,0,0,0,0,0,0,0,0,0,0,0,0,0,0,0,0,0,0,0,0,0,0,0,0,0,0,0,0,0,0,0,0,0,0,0,0,0,0,0,0,0,0,0,0,0.8515,0.8514,0,0.8378,0.8376,0.8375,0.8233,0.8231,0.8229,0.8227,0.8086,0.8085,0.8083,0,0,0,0,0,0,0,0,0,0,0,0,0,0.8654,0.8653,0.8515,0.8513,0.8512,0.8378,0.8376,0.8375,0.8233,0.8231,0.8228,0.8226,0.8087,0.8085,0.8083,0,0,0,0,0,0,0,0,0,0,0,0,0,0.8563,0.8652,0.8515,0.8425,0.8416,0.8379,0.8376,0.8374,0.8234,0.8231,0.8228,0.8225,0.8088,0.8085,0.8082,0.8123,0,0,0.8073,0.8072,0,0,0,0,0,0,0,0,0.8569,0.8558,0.844,0.8431,0.8421,0.8319,0.8374,0.829,0.8234,0.8303,0.8227,0.8223,0.8166,0.8157,0.8138,0.8117,0.8111,0.8073,0.8071,0.807,0.8069,0,0,0,0,0,0,0,0.8575,0.8564,0.8461,0.8439,0.8427,0.8391,0.8375,0.8357,0.8253,0.8296,0.8286,0.8272,0.816,0.8141,0.8133,0.8109,0.8073,0.8071,0.8069,0.8068,0.8117,0.8119,0,0,0,0,0,0,0.8595,0.857,0.8465,0.8457,0.8489,0.8391,0.8373,0.8355,0.8252,0.8234,0.8274,0.8265,0.8147,0.8137,0.8128,0.8171,0.807,0.8068,0.8066,0.8114,0.8117,0.8121,0,0,0,0,0,0,0.8599,0.8587,0.8471,0.851,0.8493,0.8392,0.8373,0.8354,0.8334,0.8236,0.8216,0.8273,0.8144,0.8132,0.8126,0.8164,0.8066,0.8064,0.811,0.8115,0.8119,0.8258,0,0,0,0,0,0,0.8603,0.8589,0.8604,0.8512,0.8491,0.8472,0.8375,0.8353,0.8329,0.8317,0.823,0.8213,0.8141,0.8131,0.8123,0.8159,0.8061,0.8106,0.8112,0.8117,0.825,0.8267,0.8282,0,0,0,0,0,0.8609,0.8648,0.8606,0.8594,0.8507,0.8474,0.8462,0.838,0.8333,0.8347,0.8284,0.8215,0.8161,0.8132,0.8122,0.8157,0.8103,0.811,0.8117,0.8243,0.8264,0.8281,0,0,0,0,0,0,0.8748,0.8634,0.8586,0.8596,0.8546,0.845,0.8466,0.8404,0.8366,0.8356,0.8254,0.8235,0.8242,0.8198,0.8168,0.8192,0.8122,0.8128,0.8222,0.824,0.8256,0.8268,0.8059,0,0,0,0,0,0.8779,0.8762,0.8664,0.8683,0.866,0.8568,0.855,0.849,0.8434,0.8412,0.8348,0.8297,0.8268,0.8251,0.8219,0.8241,0.8222,0.8261,0.8277,0.829,0.8297,0.8308,0.8325,0.8143,0.8143,0.8143,0,0,0.8845,0.8781,0.8776,0.8709,0.8663,0.8648,0.8551,0.8538,0.8526,0.841,0.8402,0.8353,0.8288,0.8298,0.8299,0.8261,0.8342,0.8299,0.831,0.831,0.8317,0.8334,0.835,0.8147,0.8147,0.8146,0,0,0.8958,0.8907,0.8918,0.8874,0.8806,0.8744,0.8747,0.866,0.8624,0.8614,0.8527,0.851,0.8462,0.8421,0.8393,0.8491,0.8427,0.8483,0.8567,0.8579,0.8594,0.8606,0.8644,0.8658,0.8489,0.8489,0.8489,0,0.9049,0.9022,0.8931,0.8925,0.8899,0.8793,0.8804,0.8765,0.8691,0.8675,0.8634,0.8573,0.8521,0.8521,0.8545,0.8525,0.8526,0.8494,0.8599,0.861,0.8621,0.8656,0.867,0.8497,0.8496,0.8495,0.8494,0,0.9138,0.9122,0.9139,0.907,0.9045,0.9048,0.8958,0.8943,0.8886,0.8829,0.8821,0.8755,0.8709,0.8703,0.8647,0.8696,0.8675,0.8618,0.8546,0.8647,0.8678,0.8691,0.8507,0.8505,0.8502,0.8501,0,0,0.9337,0.9218,0.9226,0.9194,0.9111,0.9097,0.9094,0.9049,0.9041,0.8991,0.8989,0.8951,0.8898,0.8867,0.8804,0.8814,0.8899,0.8755,0.8752,0.8787,0.8952,0.8999,0.9016,0.8855,0.8857,0.8858,0.8959,0,0.9438,0.9428,0.9347,0.9361,0.9346,0.9245,0.9243,0.9192,0.9138,0.9117,0.9057,0.9034,0.8963,0.8945,0.895,0.8888,0.8932,0.8879,0.8853,0.8853,0.8877,0.9032,0.908,0.9179,0.897,0.8972,0.8973,0,0.9555,0.9515,0.9528,0.9446,0.9437,0.9437,0.939,0.9371,0.9311,0.9271,0.9237,0.9167,0.9159,0.909,0.908,0.9046,0.903,0.8998,0.8999,0.8997,0.8923,0.9037,0.9207,0.9224,0.8991,0.899,0.8989,0,0.9703,0.9651,0.9653,0.9629,0.9532,0.9535,0.9495,0.9432,0.9411,0.937,0.9356,0.9314,0.9292,0.9261,0.9181,0.9138,0.9181,0.9104,0.915,0.9153,0.9167,0.9168,0.9342,0.9151,0.9151,0.915,0.915,0,0.9826,0.984,0.9719,0.9721,0.9733,0.9638,0.9653,0.9602,0.9548,0.9538,0.9446,0.944,0.9333,0.9314,0.9251,0.9254,0.9244,0.9213,0.9197,0.9223,0.9228,0.9214,0.9207,0.9154,0.9153,0.9153,0.9152,0,0.9995,0.9915,0.9911,0.982,0.9797,0.9811,0.9733,0.9731,0.9671,0.9661,0.9653,0.9559,0.9533,0.9449,0.9401,0.9358,0.9382,0.9348,0.9403,0.9393,0.9445,0.9443,0.9619,0.9639,0.9433,0.9435,0.9437,0,1.0082,1.009,1.0,0.9987,0.9951,0.9932,0.991,0.9817,0.9798,0.9731,0.9738,0.9704,0.9672,0.9634,0.9563,0.9526,0.9493,0.9557,0.9487,0.9515,0.9499,0.9501,0.9503,0.9574,0.9577,0.9579,0.9581,0,1.0244,1.0204,1.0177,1.0136,1.0113,1.0076,1.0033,1.0028,0.9924,0.9907,0.9879,0.9855,0.9806,0.9775,0.9726,0.9685,0.9617,0.9603,0.9612,0.9642,0.9675,0.9662,0.9449,0.96,0.9598,0.9597,0.9596,0.9595,1.0377,1.038,1.0318,1.0291,1.0249,1.0212,1.0207,1.0147,1.0122,1.0076,1.0022,1.0001,0.9941,0.987,0.9833,0.9816,0.9779,0.9792,0.9795,0.9801,0.9816,0.9675,0.9806,0.9805,0.9805,0.9804,0.9804,0,1.0538,1.0493,1.0469,1.0414,1.0393,1.0329,1.0279,1.0266,1.0249,1.0199,1.017,1.0139,1.0108,1.0034,0.9996,0.9996,0.9964,0.999,0.9991,0.9983,0.9849,0.9847,1.0017,1.0017,1.0017,1.0017,1.0017,1.0016,1.062,1.0624,1.0577,1.0559,1.0513,1.0493,1.047,1.0436,1.0396,1.0366,1.034,1.0291,1.0232,1.0189,1.0158,1.0137,1.0129,1.0166,1.0136,1.0012,0.9992,0.9973,0.9971,1.0164,1.0164,1.0272,1.0273,1.0274]},{"header":{"parameterUnit":"m.s-1","parameterCategory":1,"la1":30.2991,"la2":30.254,"lo1":-89.0895,"lo2":-89.0444,"dy":0.0017,"dx":0.0017,"nx":28,"ny":28,"refTime":"2024-08-15T09:00:00:Z","depth":0,"parameterNumber":3,"parameterNumberName":"V-component_of_WINDS"},"data":[0,0,0,0,0,0,0,0,0,0,0,0,0,0,0,0,0,0,0,0,0,0,0,0,0,0,0,0,0,0,0,0,0,0,0,0,0,0,0,0,0,0,0,0,0,0,0,0,0,0,0,0,0,0,0,0,0,0,-1.0544,-1.0544,0,-1.0547,-1.0547,-1.0547,-1.0545,-1.0545,-1.0545,-1.0545,-1.0548,-1.0548,-1.0548,0,0,0,0,0,0,0,0,0,0,0,0,0,-1.0536,-1.0537,-1.0544,-1.0544,-1.0544,-1.0547,-1.0547,-1.0547,-1.0545,-1.0545,-1.0545,-1.0545,-1.0548,-1.0548,-1.0548,0,0,0,0,0,0,0,0,0,0,0,0,0,-1.054,-1.0537,-1.0544,-1.0544,-1.0544,-1.0547,-1.0547,-1.0547,-1.0545,-1.0545,-1.0545,-1.0545,-1.0548,-1.0548,-1.0548,-1.0552,0,0,-1.0549,-1.0549,0,0,0,0,0,0,0,0,-1.0539,-1.054,-1.0544,-1.0544,-1.0544,-1.0546,-1.0545,-1.0548,-1.0545,-1.0545,-1.0545,-1.0545,-1.0547,-1.0547,-1.0548,-1.0552,-1.0552,-1.0549,-1.0549,-1.0549,-1.0549,0,0,0,0,0,0,0,-1.0539,-1.054,-1.0545,-1.0544,-1.0544,-1.0543,-1.0543,-1.0546,-1.0546,-1.0545,-1.0545,-1.0545,-1.0547,-1.0548,-1.0548,-1.0552,-1.0549,-1.0549,-1.0549,-1.0549,-1.0558,-1.0558,0,0,0,0,0,0,-1.0539,-1.0539,-1.0545,-1.0545,-1.0541,-1.0543,-1.0544,-1.0545,-1.0546,-1.0547,-1.0545,-1.0545,-1.0548,-1.0548,-1.0548,-1.0552,-1.0549,-1.0549,-1.0549,-1.0558,-1.0558,-1.0558,0,0,0,0,0,0,-1.0539,-1.054,-1.0545,-1.0542,-1.0543,-1.0543,-1.0545,-1.0545,-1.0546,-1.0547,-1.0547,-1.0546,-1.0547,-1.0548,-1.0551,-1.0552,-1.0549,-1.0549,-1.0558,-1.0558,-1.0558,-1.056,0,0,0,0,0,0,-1.0539,-1.0539,-1.0541,-1.0542,-1.0543,-1.0548,-1.0545,-1.0545,-1.0546,-1.0546,-1.0547,-1.0548,-1.0547,-1.055,-1.0551,-1.0552,-1.055,-1.0557,-1.0558,-1.0558,-1.056,-1.056,-1.0561,0,0,0,0,0,-1.0538,-1.0542,-1.0541,-1.0542,-1.0545,-1.0548,-1.0548,-1.0548,-1.0547,-1.0548,-1.0548,-1.0548,-1.0552,-1.0551,-1.0551,-1.0553,-1.0557,-1.0558,-1.0558,-1.056,-1.056,-1.0561,0,0,0,0,0,0,-1.0541,-1.0542,-1.0541,-1.0545,-1.0546,-1.0547,-1.0549,-1.0549,-1.055,-1.055,-1.0549,-1.055,-1.0552,-1.0553,-1.0551,-1.0556,-1.0554,-1.0555,-1.0556,-1.0556,-1.0556,-1.0556,-1.055,0,0,0,0,0,-1.0542,-1.0544,-1.0545,-1.0548,-1.0549,-1.0549,-1.055,-1.055,-1.0551,-1.0551,-1.0552,-1.0553,-1.0554,-1.0555,-1.0557,-1.056,-1.056,-1.0561,-1.0562,-1.0562,-1.0562,-1.0563,-1.0564,-1.0559,-1.0559,-1.0559,0,0,-1.0544,-1.0545,-1.0546,-1.0549,-1.0549,-1.0551,-1.0549,-1.0552,-1.0553,-1.0551,-1.0554,-1.0554,-1.0555,-1.0558,-1.0559,-1.0558,-1.0563,-1.0562,-1.0562,-1.0562,-1.0563,-1.0564,-1.0564,-1.0559,-1.0559,-1.0559,0,0,-1.0549,-1.055,-1.0552,-1.0553,-1.0554,-1.0554,-1.0555,-1.0556,-1.0556,-1.0558,-1.0557,-1.0558,-1.0561,-1.0562,-1.0562,-1.0566,-1.0565,-1.0567,-1.0569,-1.057,-1.057,-1.057,-1.0571,-1.0572,-1.0567,-1.0567,-1.0567,0,-1.0551,-1.0554,-1.0554,-1.0556,-1.0557,-1.0555,-1.0558,-1.0558,-1.056,-1.056,-1.0559,-1.0562,-1.0563,-1.0565,-1.0566,-1.0567,-1.0567,-1.0566,-1.057,-1.057,-1.0571,-1.0571,-1.0572,-1.0567,-1.0567,-1.0567,-1.0567,0,-1.0557,-1.0559,-1.0561,-1.0562,-1.0563,-1.0565,-1.0565,-1.0566,-1.0565,-1.0565,-1.0567,-1.0568,-1.0569,-1.0569,-1.0569,-1.0572,-1.0571,-1.057,-1.0568,-1.0571,-1.0572,-1.0572,-1.0567,-1.0567,-1.0567,-1.0567,0,0,-1.0564,-1.0564,-1.0565,-1.0565,-1.0566,-1.0567,-1.0569,-1.057,-1.057,-1.0571,-1.0572,-1.0574,-1.0573,-1.0574,-1.0573,-1.0574,-1.0577,-1.0573,-1.0573,-1.0574,-1.0579,-1.0579,-1.058,-1.0576,-1.0576,-1.0576,-1.0579,0,-1.0568,-1.0571,-1.057,-1.0573,-1.0575,-1.0573,-1.0575,-1.0575,-1.0575,-1.0576,-1.0575,-1.0577,-1.0575,-1.0576,-1.0576,-1.0576,-1.0578,-1.0576,-1.0577,-1.0577,-1.0576,-1.058,-1.0581,-1.0583,-1.0579,-1.0579,-1.0579,0,-1.0573,-1.0574,-1.0577,-1.0577,-1.0578,-1.0579,-1.0579,-1.058,-1.0581,-1.058,-1.0581,-1.058,-1.0581,-1.0579,-1.0581,-1.058,-1.058,-1.058,-1.058,-1.058,-1.0578,-1.058,-1.0584,-1.0585,-1.058,-1.058,-1.058,0,-1.0577,-1.0579,-1.0581,-1.0581,-1.0581,-1.0582,-1.0582,-1.0582,-1.0583,-1.0583,-1.0583,-1.0584,-1.0584,-1.0584,-1.0583,-1.0582,-1.0585,-1.0583,-1.0584,-1.0584,-1.0585,-1.0585,-1.0589,-1.0585,-1.0585,-1.0585,-1.0585,0,-1.0582,-1.0584,-1.0583,-1.0584,-1.0585,-1.0584,-1.0586,-1.0586,-1.0586,-1.0587,-1.0585,-1.0586,-1.0585,-1.0586,-1.0585,-1.0586,-1.0586,-1.0586,-1.0586,-1.0586,-1.0586,-1.0586,-1.0585,-1.0586,-1.0585,-1.0585,-1.0585,0,-1.0587,-1.0586,-1.0588,-1.0587,-1.0587,-1.0589,-1.0588,-1.0589,-1.0588,-1.0589,-1.0589,-1.0589,-1.0589,-1.0588,-1.0589,-1.0588,-1.059,-1.0589,-1.0589,-1.0589,-1.059,-1.059,-1.0594,-1.0595,-1.0591,-1.0591,-1.0591,0,-1.0589,-1.0591,-1.059,-1.0591,-1.0591,-1.0591,-1.0592,-1.0591,-1.0591,-1.0591,-1.0592,-1.0592,-1.0592,-1.0593,-1.0592,-1.0592,-1.0592,-1.0593,-1.0592,-1.0592,-1.0591,-1.0591,-1.0591,-1.0593,-1.0593,-1.0594,-1.0594,0,-1.0594,-1.0594,-1.0594,-1.0595,-1.0595,-1.0595,-1.0595,-1.0595,-1.0594,-1.0595,-1.0595,-1.0595,-1.0595,-1.0595,-1.0595,-1.0595,-1.0594,-1.0594,-1.0594,-1.0594,-1.0594,-1.0594,-1.059,-1.0594,-1.0594,-1.0594,-1.0594,-1.0594,-1.0598,-1.0599,-1.0598,-1.0599,-1.0599,-1.0599,-1.0599,-1.0598,-1.0599,-1.0599,-1.0598,-1.0598,-1.0598,-1.0598,-1.0597,-1.0598,-1.0597,-1.0597,-1.0597,-1.0597,-1.0597,-1.0594,-1.0598,-1.0598,-1.0598,-1.0598,-1.0598,0,-1.0602,-1.0602,-1.0602,-1.0602,-1.0602,-1.0601,-1.0601,-1.0601,-1.0602,-1.0601,-1.0601,-1.0601,-1.0601,-1.0601,-1.06,-1.0601,-1.06,-1.0601,-1.06,-1.06,-1.0598,-1.0598,-1.0601,-1.0601,-1.0601,-1.0601,-1.0601,-1.0601,-1.0605,-1.0606,-1.0605,-1.0606,-1.0605,-1.0606,-1.0606,-1.0605,-1.0605,-1.0605,-1.0605,-1.0604,-1.0604,-1.0603,-1.0603,-1.0603,-1.0603,-1.0603,-1.0603,-1.0601,-1.0601,-1.06,-1.06,-1.0604,-1.0604,-1.0605,-1.0605,-1.0605]}]]